Location: New Canada
(47.1017°N, 68.5042°W)
Time: 21:05:16
(UTC+00:00)

RS-44 - Pass Details

Date: 05 April 2023
Orbit: 1175 x 1510 km, 82.5° (Epoch: 02 June)

Event Time Altitude Azimuth Distance (km) Brightness Sun altitude
Rises 07:12:54 0° 342° (NNW) 4,445 ? -26.7°
Reaches altitude 10° 07:16:20 10° 329° (NNW) 3,516 ? -26.3°
Maximum altitude 07:22:30 23° 281° (WNW) 2,701 ? -25.5°
Enters shadow 07:22:36 23° 280° (W) 2,702 ? -25.5°
